Date String (YYYY-MM-DD hh:mm:ss) UTC,Instrument flags,Ambient pressure (hPa),Sample flow (lpm),Bypass flow (lpm),Sample temperature (°C),Ambient temperature (°C),ASC tube jacket temperature (°C),LED temperature (°C),Box temperature (°C),Sample RH (%),Span deviation,Mass concentration (μg/m³),Mass concentration (μg/m³),Mass concentration (μg/m³)
DateTimeUTC,F1_M11,P_M11,Q1_M11,Q2_M11,T1_M11,T2_M11,T3_M11,T4_M11,T5_M11,U1_M11,ZSPAN_M11,X0_M11,X2_M11,X1_M11
2021-10-24 19:00:00,,0821.6,5.01,0.00,28.6,27.5,00.0,37.8,30.2,09.9,0000.0,0001.89,0000.92,0000.62
2021-10-24 19:01:00,,0821.6,4.99,0.00,28.6,27.5,00.0,37.8,30.3,10.1,0000.0,0001.98,0000.96,0000.62
2021-10-24 19:02:00,,0821.5,5.01,0.00,28.6,27.6,00.0,37.8,30.3,10.1,0000.0,0001.99,0000.96,0000.63
2021-10-24 19:03:00,,0821.5,4.99,0.00,28.6,27.6,00.0,37.8,30.3,10.0,0000.0,0001.96,0000.96,0000.64
2021-10-24 19:04:00,,0821.6,5.00,0.00,28.6,27.6,00.0,37.8,30.3,09.8,0000.0,0001.75,0000.93,0000.64
2021-10-24 19:05:00,,0821.5,5.00,0.00,28.6,27.6,00.0,37.8,30.3,10.0,0000.0,0001.69,0000.92,0000.65
2021-10-24 19:06:00,,0821.5,5.00,0.00,28.6,27.6,00.0,37.8,30.3,10.1,0000.0,0001.60,0000.90,0000.65
2021-10-24 19:07:00,,0821.4,5.00,0.00,28.7,27.6,00.0,37.8,30.3,10.1,0000.0,0001.69,0000.96,0000.66
2021-10-24 19:08:00,,0821.4,5.00,0.00,28.7,27.6,00.0,37.8,30.4,10.3,0000.0,0001.79,0001.00,0000.67
2021-10-24 19:09:00,,0821.4,5.01,0.00,28.7,27.6,00.0,37.8,30.4,10.3,0000.0,0001.87,0001.03,0000.68
2021-10-24 19:10:00,,0821.4,5.00,0.00,28.7,27.6,00.0,37.8,30.4,10.3,0000.0,0001.87,0001.03,0000.68
2021-10-24 19:11:00,,0821.4,5.00,0.00,28.7,27.7,00.0,37.8,30.3,10.3,0000.0,0002.10,0001.07,0000.69
2021-10-24 19:12:00,,0821.4,5.00,0.00,28.7,27.6,00.0,37.8,30.4,10.2,0000.0,0002.18,0001.07,0000.69
2021-10-24 19:13:00,,0821.3,5.01,0.00,28.7,27.6,00.0,37.8,30.3,10.2,0000.0,0002.30,0001.10,0000.69
2021-10-24 19:14:00,,0821.2,4.98,0.00,28.7,27.6,00.0,37.8,30.3,10.0,0000.0,0002.53,0001.17,0000.70
2021-10-24 19:15:00,,0821.2,5.01,0.00,28.7,27.7,00.0,37.8,30.3,10.1,0000.0,0003.15,0001.29,0000.71
2021-10-24 19:16:00,,0821.2,5.01,0.00,28.7,27.7,00.0,37.8,30.4,10.0,0000.0,0003.64,0001.38,0000.72
2021-10-24 19:17:00,,0821.1,5.00,0.00,28.7,27.7,00.0,37.8,30.4,10.1,0000.0,0003.85,0001.46,0000.72
2021-10-24 19:18:00,,0821.1,5.00,0.00,28.7,27.8,00.0,37.8,30.4,09.9,0000.0,0003.91,0001.47,0000.71
2021-10-24 19:19:00,,0821.1,4.99,0.00,28.7,27.8,00.0,37.8,30.4,09.7,0000.0,0003.78,0001.42,0000.71
2021-10-24 19:20:00,,0821.1,5.00,0.00,28.7,27.8,00.0,37.8,30.4,09.8,0000.0,0004.04,0001.40,0000.71
2021-10-24 19:21:00,,0821.1,5.00,0.00,28.7,27.8,00.0,37.8,30.4,10.0,0000.0,0004.57,0001.40,0000.70
2021-10-24 19:22:00,,0820.9,5.01,0.00,28.7,27.8,00.0,37.8,30.3,10.0,0000.0,0004.71,0001.37,0000.70
2021-10-24 19:23:00,,0821.0,4.99,0.00,28.7,27.8,00.0,37.8,30.4,09.9,0000.0,0004.49,0001.33,0000.69
2021-10-24 19:24:00,,0821.0,5.01,0.00,28.7,27.8,00.0,37.8,30.4,09.9,0000.0,0004.45,0001.32,0000.69
2021-10-24 19:25:00,,0821.0,5.00,0.00,28.7,27.9,00.0,37.8,30.4,09.8,0000.0,0004.47,0001.33,0000.70
2021-10-24 19:26:00,,0821.0,4.99,0.00,28.7,27.8,00.0,37.9,30.4,09.8,0000.0,0003.96,0001.27,0000.69
2021-10-24 19:27:00,,0820.9,5.00,0.00,28.7,27.8,00.0,37.9,30.4,09.7,0000.0,0003.45,0001.18,0000.69
2021-10-24 19:28:00,,0820.8,5.00,0.00,28.7,27.8,00.0,37.9,30.4,09.8,0000.0,0003.31,0001.11,0000.68
2021-10-24 19:29:00,,0820.9,5.01,0.00,28.7,27.8,00.0,37.9,30.5,10.0,0000.0,0003.31,0001.10,0000.68
2021-10-24 19:30:00,,0820.9,5.00,0.00,28.7,27.9,00.0,37.9,30.4,09.9,0000.0,0003.50,0001.14,0000.69
2021-10-24 19:31:00,,0820.9,5.00,0.00,28.7,27.9,00.0,37.9,30.4,09.8,0000.0,0003.19,0001.13,0000.69
2021-10-24 19:32:00,,0820.9,5.00,0.00,28.7,27.9,00.0,37.9,30.4,09.7,0000.0,0002.59,0001.13,0000.70
2021-10-24 19:33:00,,0820.9,5.00,0.00,28.7,27.9,00.0,37.9,30.4,09.8,0000.0,0002.16,0001.14,0000.69
2021-10-24 19:34:00,,0820.9,5.00,0.00,28.7,27.9,00.0,37.9,30.4,09.9,0000.0,0002.34,0001.14,0000.68
2021-10-24 19:35:00,,0820.9,5.00,0.00,28.7,27.9,00.0,37.9,30.5,09.8,0000.0,0002.90,0001.19,0000.68
2021-10-24 19:36:00,,0820.9,5.01,0.00,28.7,27.9,00.0,37.9,30.5,09.7,0000.0,0002.78,0001.13,0000.66
2021-10-24 19:37:00,,0820.9,5.00,0.00,28.7,27.9,00.0,37.9,30.5,09.7,0000.0,0002.89,0001.11,0000.65
2021-10-24 19:38:00,,0820.9,4.99,0.00,28.8,27.9,00.0,37.9,30.5,09.7,0000.0,0003.14,0001.11,0000.65
2021-10-24 19:39:00,,0820.9,5.00,0.00,28.8,27.8,00.0,37.9,30.5,09.7,0000.0,0003.20,0001.15,0000.64
2021-10-24 19:40:00,,0820.9,5.00,0.00,28.8,27.8,00.0,37.9,30.5,09.5,0000.0,0003.10,0001.12,0000.63
2021-10-24 19:41:00,,0820.9,4.99,0.00,28.8,27.9,00.0,37.9,30.5,09.4,0000.0,0003.02,0001.11,0000.62
2021-10-24 19:42:00,,0820.8,5.01,0.00,28.8,27.9,00.0,37.9,30.5,09.4,0000.0,0003.02,0001.10,0000.61
2021-10-24 19:43:00,,0820.7,5.00,0.00,28.8,27.9,00.0,37.9,30.5,09.5,0000.0,0002.94,0001.07,0000.61
2021-10-24 19:44:00,,0820.7,5.00,0.00,28.8,27.9,00.0,37.9,30.5,09.6,0000.0,0003.06,0001.07,0000.60
2021-10-24 19:45:00,,0820.8,5.00,0.00,28.8,28.0,00.0,37.9,30.5,09.9,0000.0,0002.97,0001.06,0000.60
2021-10-24 19:46:00,,0820.8,5.00,0.00,28.8,28.0,00.0,37.9,30.5,09.9,0000.0,0002.49,0001.03,0000.61
2021-10-24 19:47:00,,0820.8,5.01,0.00,28.8,28.0,00.0,37.9,30.5,09.6,0000.0,0002.54,0001.04,0000.61
2021-10-24 19:48:00,,0820.8,5.00,0.00,28.8,27.9,00.0,38.0,30.6,09.6,0000.0,0002.33,0001.02,0000.61
2021-10-24 19:49:00,,0820.8,5.01,0.00,28.9,27.9,00.0,38.0,30.5,09.5,0000.0,0002.06,0001.00,0000.61
2021-10-24 19:50:00,,0820.7,5.00,0.00,28.9,27.9,00.0,38.0,30.5,09.5,0000.0,0002.00,0000.97,0000.61
2021-10-24 19:51:00,,0820.8,5.01,0.00,28.9,27.9,00.0,38.0,30.6,09.3,0000.0,0002.11,0000.96,0000.60
2021-10-24 19:52:00,,0821.0,5.00,0.00,28.9,27.9,00.0,38.0,30.6,09.3,0000.0,0002.01,0000.93,0000.61
2021-10-24 19:53:00,,0820.9,5.01,0.00,28.9,28.0,00.0,38.0,30.7,09.4,0000.0,0002.02,0000.93,0000.61
2021-10-24 19:54:00,,0820.9,4.99,0.00,28.9,28.0,00.0,38.0,30.7,09.5,0000.0,0002.01,0000.93,0000.60
2021-10-24 19:55:00,,0821.0,5.00,0.00,29.0,28.0,00.0,38.0,30.7,09.4,0000.0,0001.92,0000.91,0000.60
2021-10-24 19:56:00,,0821.0,5.00,0.00,29.0,28.1,00.0,38.0,30.8,09.5,0000.0,0001.73,0000.90,0000.60
2021-10-24 19:57:00,,0821.0,5.00,0.00,29.0,28.1,00.0,38.1,30.8,09.5,0000.0,0001.61,0000.87,0000.60
2021-10-24 19:58:00,,0821.0,5.01,0.00,29.1,28.2,00.0,38.1,30.9,09.5,0000.0,0001.57,0000.87,0000.60
2021-10-24 19:59:00,,0821.0,4.99,0.00,29.1,28.3,00.0,38.1,30.9,09.5,0000.0,0001.56,0000.88,0000.60
